Knox, IN

8:30 PM CDT on July 20, 2017 (GMT -0500)
Starke County

Weather History for KOXI - January, 2013

Change the Weather History Date:

Friday, January 18, 2013

  Actual Average (KRCR) Record (KRCR)
Temperature  
Mean Temperature 26 °F -  
Max Temperature 37 °F 29 °F 37 °F (2015)
Min Temperature 16 °F 13 °F 1 °F (2016)
Degree Days  
Heating Degree Days 38    
Moisture  
Dew Point 20 °F    
Average Humidity 71    
Maximum Humidity 89    
Minimum Humidity 56    
Precipitation  
Precipitation 0.00 in - - ()
Sea Level Pressure  
Sea Level Pressure 30.25 in    
Wind  
Wind Speed 11 mph (SSW)    
Max Wind Speed 25 mph    
Max Gust Speed 37 mph    
Visibility 10 miles    
Events      
Averages and records for this station are not official NWS values.
T = Trace of Precipitation, MM = Missing Value Source: NWS Daily Summary

Daily Weather History Graph

Daily Weather History Graph

Search for Another Location

Airport or City:

Trip Planner

Search our weather history database for the weather conditions in past years. The results will help you decide how hot, cold, wet, or windy it might be!

Date:

Astronomy

Jan. 18, 2013 Rise Set
Actual Time 7:08 AM CST 4:46 PM CST
Civil Twilight 6:38 AM CST 5:16 PM CST
Nautical Twilight 6:04 AM CST 5:50 PM CST
Astronomical Twilight 5:31 AM CST 6:23 PM CST
Moon 10:41 AM CST (1/18) No Moon Set
Length of Visible Light 10h 37m
Length of Day
9h 37m
Waxing Crescent, 47% of the Moon is Illuminated
Jan 18
Waxing Crescent
Jan 18
First Quarter
Jan 26
Full
Feb 3
Last Quarter
Feb 10
New

Hourly Weather History & Observations

Time (CST) Temp. Windchill Dew Point Humidity Pressure Visibility Wind Dir Wind Speed Gust Speed Precip Events Conditions
12:15 AM 19.2 °F 12.5 °F 11.7 °F 72% 30.38 in 10.0 mi WSW 4.6 mph - N/A   Clear
12:35 AM 18.1 °F 12.9 °F 11.7 °F 76% 30.40 in 10.0 mi SW 3.5 mph - N/A   Clear
12:55 AM 18.5 °F 9.3 °F 12.4 °F 77% 30.42 in 10.0 mi WSW 6.9 mph - N/A   Clear
1:15 AM 18.3 °F 10.2 °F 12.2 °F 77% 30.41 in 10.0 mi SW 5.8 mph - N/A   Clear
1:35 AM 18.0 °F 11.1 °F 11.7 °F 76% 30.41 in 10.0 mi WSW 4.6 mph - N/A   Clear
1:55 AM 18.9 °F 9.8 °F 12.0 °F 75% 30.42 in 10.0 mi SW 6.9 mph - N/A   Clear
2:15 AM 18.7 °F 8.6 °F 12.0 °F 75% 30.43 in 10.0 mi SW 8.1 mph - N/A   Clear
2:35 AM 18.9 °F 8.8 °F 12.2 °F 75% 30.42 in 10.0 mi SW 8.1 mph - N/A   Clear
2:55 AM 19.2 °F 10.2 °F 12.4 °F 75% 30.42 in 10.0 mi SW 6.9 mph - N/A   Clear
3:15 AM 18.7 °F 11.9 °F 12.6 °F 77% 30.42 in 10.0 mi SW 4.6 mph - N/A   Scattered Clouds
3:35 AM 18.3 °F 10.2 °F 12.6 °F 78% 30.41 in 10.0 mi SW 5.8 mph - N/A   Scattered Clouds
3:55 AM 18.3 °F 9.1 °F 12.7 °F 79% 30.40 in 10.0 mi SW 6.9 mph - N/A   Clear
4:15 AM 18.7 °F 10.6 °F 13.1 °F 79% 30.41 in 10.0 mi SW 5.8 mph - N/A   Clear
4:35 AM 18.5 °F 9.3 °F 13.5 °F 81% 30.42 in 10.0 mi SW 6.9 mph - N/A   Clear
4:55 AM 18.3 °F 10.2 °F 13.8 °F 83% 30.42 in 10.0 mi SSW 5.8 mph - N/A   Clear
5:15 AM 17.8 °F 10.9 °F 14.0 °F 85% 30.41 in 10.0 mi South 4.6 mph - N/A   Clear
5:35 AM 17.1 °F 8.7 °F 14.0 °F 88% 30.41 in 10.0 mi SSW 5.8 mph - N/A   Clear
5:55 AM 16.9 °F 8.5 °F 14.2 °F 89% 30.41 in 10.0 mi SSW 5.8 mph - N/A   Clear
6:15 AM 17.6 °F 10.7 °F 14.7 °F 88% 30.41 in 10.0 mi South 4.6 mph - N/A   Scattered Clouds
6:35 AM 18.1 °F 10.0 °F 15.3 °F 88% 30.42 in 10.0 mi SSW 5.8 mph - N/A   Scattered Clouds
6:55 AM 18.3 °F 10.2 °F 15.4 °F 89% 30.41 in 10.0 mi SSW 5.8 mph - N/A   Clear
7:15 AM 18.5 °F 11.7 °F 15.8 °F 89% 30.41 in 10.0 mi South 4.6 mph - N/A   Clear
7:35 AM 19.2 °F 11.3 °F 16.5 °F 89% 30.40 in 10.0 mi South 5.8 mph - N/A   Clear
7:55 AM 20.5 °F 11.7 °F 17.4 °F 88% 30.40 in 10.0 mi South 6.9 mph - N/A   Scattered Clouds
8:15 AM 21.4 °F 12.8 °F 18.1 °F 87% 30.40 in 10.0 mi South 6.9 mph - N/A   Mostly Cloudy
8:35 AM 22.6 °F 14.3 °F 18.9 °F 85% 30.40 in 10.0 mi South 6.9 mph - N/A   Mostly Cloudy
8:55 AM 23.9 °F 14.2 °F 19.6 °F 84% 30.40 in 10.0 mi South 9.2 mph - N/A   Mostly Cloudy
9:15 AM 25.2 °F 15.7 °F 20.1 °F 81% 30.40 in 10.0 mi South 9.2 mph - N/A   Scattered Clouds
9:35 AM 26.6 °F 16.2 °F 20.8 °F 79% 30.39 in 10.0 mi South 11.5 mph - N/A   Clear
9:55 AM 27.7 °F 17.1 °F 21.2 °F 77% 30.39 in 10.0 mi South 12.7 mph - N/A   Clear
10:15 AM 29.1 °F 17.9 °F 21.6 °F 73% 30.38 in 10.0 mi South 15.0 mph - N/A   Clear
10:35 AM 30.4 °F 19.1 °F 21.9 °F 71% 30.37 in 10.0 mi SSW 16.1 mph 20.7 mph N/A   Clear
10:55 AM 31.3 °F 20.3 °F 22.3 °F 69% 30.35 in 10.0 mi South 16.1 mph 20.7 mph N/A   Clear
11:15 AM 32.4 °F 20.6 °F 22.6 °F 67% 30.33 in 10.0 mi SSW 19.6 mph 27.6 mph N/A   Scattered Clouds
11:55 AM 33.3 °F 22.1 °F 23.5 °F 68% 30.29 in 10.0 mi SSW 18.4 mph 27.6 mph N/A   Overcast
12:15 PM 33.1 °F 20.6 °F 23.9 °F 69% 30.27 in 10.0 mi SSW 23.0 mph 27.6 mph N/A   Scattered Clouds
12:35 PM 33.4 °F 22.3 °F 24.1 °F 69% 30.26 in 10.0 mi SSW 18.4 mph 26.5 mph N/A   Clear
12:55 PM 34.7 °F 22.8 °F 24.6 °F 67% 30.24 in 10.0 mi SSW 23.0 mph 29.9 mph N/A   Clear
1:15 PM 35.6 °F 23.7 °F 24.6 °F 64% 30.22 in 10.0 mi SSW 24.2 mph 29.9 mph N/A   Clear
1:35 PM 36.3 °F 25.2 °F 24.6 °F 63% 30.21 in 10.0 mi SSW 21.9 mph 31.1 mph N/A   Clear
2:15 PM 37.0 °F 26.7 °F 24.3 °F 60% 30.18 in 10.0 mi SSW 19.6 mph 33.4 mph N/A   Clear
2:35 PM 37.0 °F 25.4 °F 23.4 °F 58% 30.17 in 10.0 mi SSW 25.3 mph 31.1 mph N/A   Clear
2:55 PM 37.2 °F 25.9 °F 23.2 °F 57% 30.15 in 10.0 mi South 24.2 mph 28.8 mph N/A   Clear
3:15 PM 37.4 °F 28.5 °F 23.0 °F 56% 30.14 in 10.0 mi SSW 15.0 mph 27.6 mph N/A   Clear
3:35 PM 37.2 °F 26.7 °F 22.8 °F 56% 30.13 in 10.0 mi South 20.7 mph 31.1 mph N/A   Clear
3:55 PM 36.9 °F 26.8 °F 22.5 °F 56% 30.11 in 10.0 mi SSW 18.4 mph 29.9 mph N/A   Clear
4:15 PM 36.7 °F 25.7 °F 22.6 °F 57% 30.10 in 10.0 mi SSW 21.9 mph 27.6 mph N/A   Clear
4:35 PM 36.3 °F 24.7 °F 22.5 °F 57% 30.09 in 10.0 mi South 24.2 mph 31.1 mph N/A   Clear
4:55 PM 36.0 °F 25.6 °F 22.5 °F 58% 30.08 in 10.0 mi South 18.4 mph 25.3 mph N/A   Clear
5:15 PM 35.6 °F 24.2 °F 22.5 °F 59% 30.07 in 10.0 mi South 21.9 mph 27.6 mph N/A   Clear
5:35 PM 35.6 °F 23.7 °F 22.3 °F 58% 30.05 in 10.0 mi South 24.2 mph 28.8 mph N/A   Clear
5:55 PM 35.6 °F 24.0 °F 22.6 °F 59% 30.04 in 10.0 mi South 23.0 mph 36.8 mph N/A   Clear
6:15 PM 35.6 °F 24.0 °F 22.6 °F 59% 30.04 in 10.0 mi SSW 23.0 mph 31.1 mph N/A   Clear
6:35 PM 35.6 °F 23.7 °F 22.6 °F 59% 30.04 in 10.0 mi SSW 24.2 mph 31.1 mph N/A   Clear
6:55 PM 36.0 °F 24.2 °F 22.8 °F 59% 30.04 in 10.0 mi SSW 24.2 mph 32.2 mph N/A   Clear
7:15 PM 36.0 °F 25.0 °F 23.2 °F 60% 30.05 in 10.0 mi SSW 20.7 mph 29.9 mph N/A   Clear
7:35 PM 35.8 °F 25.7 °F 23.7 °F 62% 30.05 in 10.0 mi SSW 17.3 mph 26.5 mph N/A   Clear
7:55 PM 36.0 °F 25.0 °F 24.1 °F 62% 30.04 in 10.0 mi SSW 20.7 mph 26.5 mph N/A   Clear
8:15 PM 36.3 °F 25.5 °F 24.6 °F 63% 30.04 in 10.0 mi SSW 20.7 mph 26.5 mph N/A   Clear
8:55 PM 36.5 °F 26.3 °F 25.3 °F 64% 30.03 in 10.0 mi SSW 18.4 mph 27.6 mph N/A   Clear
9:15 PM 36.0 °F 26.3 °F 25.7 °F 66% 30.03 in 10.0 mi SSW 16.1 mph - N/A   Clear
9:35 PM 35.8 °F 26.5 °F 25.7 °F 67% 30.03 in 10.0 mi SW 15.0 mph 21.9 mph N/A   Clear
9:55 PM 35.8 °F 26.5 °F 25.7 °F 67% 30.02 in 10.0 mi SSW 15.0 mph - N/A   Clear
10:15 PM 35.8 °F 26.5 °F 26.1 °F 68% 30.02 in 10.0 mi SSW 15.0 mph 21.9 mph N/A   Clear
10:35 PM 36.5 °F 27.8 °F 25.9 °F 65% 30.01 in 10.0 mi SSW 13.8 mph - N/A   Clear
10:55 PM 37.0 °F 26.7 °F 25.7 °F 64% 30.01 in 10.0 mi SSW 19.6 mph 25.3 mph N/A   Clear
11:15 PM 37.4 °F 27.5 °F 25.7 °F 63% 30.01 in 10.0 mi SW 18.4 mph 27.6 mph N/A   Clear
11:35 PM 37.2 °F 27.6 °F 26.1 °F 64% 30.00 in 10.0 mi SW 17.3 mph 25.3 mph N/A   Clear
11:55 PM 37.2 °F 27.3 °F 26.2 °F 65% 30.00 in 10.0 mi SW 18.4 mph 21.9 mph N/A   Clear